Time,TemperatureF,DewpointF,PressureIn,WindDirection,WindDirectionDegrees,WindSpeedMPH,WindSpeedGustMPH,Humidity,HourlyPrecipIn,Conditions,Clouds,dailyrainin,SoftwareType,DateUTC
2014-07-28 00:01:00,81.7,75.2,30.09,SSW,205,0.0,0.0,81,0.00,,,0.00,meteohub,2014-07-28 04:01:00,
2014-07-28 00:02:00,81.7,75.2,30.09,SSW,205,0.0,0.0,81,0.00,,,0.00,meteohub,2014-07-28 04:02:00,
2014-07-28 00:07:00,81.5,75.0,30.09,SSW,205,0.0,0.0,81,0.00,,,0.00,meteohub,2014-07-28 04:07:00,
2014-07-28 00:12:00,81.1,74.7,30.09,SSW,205,0.0,0.0,81,0.00,,,0.00,meteohub,2014-07-28 04:12:00,
2014-07-28 00:17:00,81.1,75.6,30.09,SSW,205,0.0,0.0,83,0.00,,,0.00,meteohub,2014-07-28 04:17:00,
2014-07-28 00:22:00,81.0,75.4,30.09,SSW,205,0.0,0.0,83,0.00,,,0.00,meteohub,2014-07-28 04:22:00,
2014-07-28 00:27:00,81.0,75.4,30.08,SSW,205,0.0,0.0,83,0.00,,,0.00,meteohub,2014-07-28 04:27:00,
2014-07-28 00:32:00,80.8,75.2,30.09,SSW,205,0.0,0.0,83,0.00,,,0.00,meteohub,2014-07-28 04:32:00,
2014-07-28 00:37:00,80.8,75.2,30.08,SSW,205,0.0,0.0,83,0.00,,,0.00,meteohub,2014-07-28 04:37:00,
2014-07-28 00:42:00,80.8,75.6,30.08,SSW,205,0.0,0.0,84,0.00,,,0.00,meteohub,2014-07-28 04:42:00,
2014-07-28 00:47:00,80.8,75.2,30.08,SSW,205,0.0,0.0,83,0.00,,,0.00,meteohub,2014-07-28 04:47:00,
2014-07-28 00:52:00,80.6,75.4,30.08,SSW,205,0.0,0.0,84,0.00,,,0.00,meteohub,2014-07-28 04:52:00,
2014-07-28 00:57:00,80.4,75.2,30.08,SSW,205,0.0,0.0,84,0.00,,,0.00,meteohub,2014-07-28 04:57:00,
2014-07-28 01:02:00,80.4,75.2,30.08,SSW,205,0.0,0.0,84,0.00,,,0.00,meteohub,2014-07-28 05:02:00,
2014-07-28 01:07:00,80.4,75.6,30.08,SSW,205,0.0,0.0,85,0.00,,,0.00,meteohub,2014-07-28 05:07:00,
2014-07-28 01:12:00,80.2,75.4,30.08,SSW,205,0.0,0.0,85,0.00,,,0.00,meteohub,2014-07-28 05:12:00,
2014-07-28 01:17:00,80.2,75.7,30.08,SSW,205,0.0,0.0,86,0.00,,,0.00,meteohub,2014-07-28 05:17:00,
2014-07-28 01:22:00,80.1,75.6,30.08,SSW,205,0.0,0.0,86,0.00,,,0.00,meteohub,2014-07-28 05:22:00,
2014-07-28 01:26:00,80.1,75.9,30.08,SSW,205,0.0,0.0,87,0.00,,,0.00,meteohub,2014-07-28 05:26:00,
2014-07-28 01:31:00,80.1,75.9,30.08,SSW,205,0.0,0.0,87,0.00,,,0.00,meteohub,2014-07-28 05:31:00,
2014-07-28 01:36:00,79.9,75.9,30.08,SSW,205,0.0,0.0,88,0.00,,,0.00,meteohub,2014-07-28 05:36:00,
2014-07-28 01:41:00,79.9,75.9,30.08,SSW,205,0.0,0.0,88,0.00,,,0.00,meteohub,2014-07-28 05:41:00,
2014-07-28 01:46:00,79.9,76.3,30.07,SSW,205,0.0,0.0,89,0.00,,,0.00,meteohub,2014-07-28 05:46:00,
2014-07-28 01:51:00,79.5,75.6,30.07,SSW,205,0.0,0.0,88,0.00,,,0.00,meteohub,2014-07-28 05:51:00,
2014-07-28 01:56:00,79.3,75.6,30.07,SSW,205,0.0,0.0,88,0.00,,,0.00,meteohub,2014-07-28 05:56:00,
2014-07-28 02:01:00,79.3,75.7,30.07,SSW,205,0.0,0.0,89,0.00,,,0.00,meteohub,2014-07-28 06:01:00,
2014-07-28 02:06:00,79.3,75.7,30.07,SSW,205,0.0,0.0,89,0.00,,,0.00,meteohub,2014-07-28 06:06:00,
2014-07-28 02:12:00,79.3,76.1,30.06,SSW,205,0.0,0.0,90,0.00,,,0.00,meteohub,2014-07-28 06:12:00,
2014-07-28 02:16:00,79.2,75.6,30.06,SSW,205,0.0,0.0,89,0.00,,,0.00,meteohub,2014-07-28 06:16:00,
2014-07-28 02:21:00,79.0,75.4,30.06,SSW,205,0.0,0.0,89,0.00,,,0.00,meteohub,2014-07-28 06:21:00,
2014-07-28 02:26:00,78.8,75.6,30.06,SSW,205,0.0,0.0,90,0.00,,,0.00,meteohub,2014-07-28 06:26:00,
2014-07-28 02:31:00,78.8,75.6,30.06,SSW,205,0.0,0.0,90,0.00,,,0.00,meteohub,2014-07-28 06:31:00,
2014-07-28 02:36:00,79.0,75.7,30.06,SSW,205,0.0,0.0,90,0.00,,,0.00,meteohub,2014-07-28 06:36:00,
2014-07-28 02:41:00,79.0,75.7,30.06,SSW,205,0.0,0.0,90,0.00,,,0.00,meteohub,2014-07-28 06:41:00,
2014-07-28 02:46:00,79.0,75.7,30.06,SSW,205,0.0,0.0,90,0.00,,,0.00,meteohub,2014-07-28 06:46:00,
2014-07-28 02:51:00,79.0,75.7,30.05,SSW,205,0.0,0.0,90,0.00,,,0.00,meteohub,2014-07-28 06:51:00,
2014-07-28 02:56:00,79.2,75.9,30.05,SSW,205,0.0,0.0,90,0.00,,,0.00,meteohub,2014-07-28 06:56:00,
2014-07-28 03:01:00,79.2,75.9,30.05,SSW,205,0.0,0.0,90,0.00,,,0.00,meteohub,2014-07-28 07:01:00,
2014-07-28 03:06:00,79.0,75.7,30.05,SSW,205,0.0,0.0,90,0.00,,,0.00,meteohub,2014-07-28 07:06:00,
2014-07-28 03:12:00,79.0,75.7,30.05,SSW,205,0.0,0.0,90,0.00,,,0.00,meteohub,2014-07-28 07:12:00,
2014-07-28 03:17:00,79.0,75.7,30.05,SSW,205,0.0,0.0,90,0.00,,,0.00,meteohub,2014-07-28 07:17:00,
2014-07-28 03:22:00,78.8,75.9,30.05,SSW,205,0.0,0.0,91,0.00,,,0.00,meteohub,2014-07-28 07:22:00,
2014-07-28 03:27:00,78.6,75.7,30.05,SSW,205,0.0,0.0,91,0.00,,,0.00,meteohub,2014-07-28 07:27:00,
2014-07-28 03:32:00,78.6,75.7,30.04,SSW,205,0.0,0.0,91,0.00,,,0.00,meteohub,2014-07-28 07:32:00,
2014-07-28 03:36:00,78.6,75.7,30.04,SSW,205,0.0,0.0,91,0.00,,,0.00,meteohub,2014-07-28 07:36:00,
2014-07-28 03:41:00,78.4,75.9,30.04,SSW,205,0.0,0.0,92,0.00,,,0.00,meteohub,2014-07-28 07:41:00,
2014-07-28 03:46:00,78.6,76.1,30.04,SSW,205,0.0,0.0,92,0.00,,,0.00,meteohub,2014-07-28 07:46:00,
2014-07-28 03:51:00,78.4,75.9,30.04,SSW,205,0.0,0.0,92,0.00,,,0.00,meteohub,2014-07-28 07:51:00,
2014-07-28 03:56:00,78.4,75.9,30.04,SSW,205,0.0,0.0,92,0.00,,,0.00,meteohub,2014-07-28 07:56:00,
2014-07-28 04:01:00,78.4,75.9,30.04,SSW,205,0.0,0.0,92,0.00,,,0.00,meteohub,2014-07-28 08:01:00,
2014-07-28 04:06:00,78.4,75.9,30.04,SSW,205,0.0,0.0,92,0.00,,,0.00,meteohub,2014-07-28 08:06:00,
2014-07-28 04:11:00,78.3,75.7,30.04,SSW,205,0.0,0.0,92,0.00,,,0.00,meteohub,2014-07-28 08:11:00,
2014-07-28 04:17:00,78.3,76.1,30.04,SSW,205,0.0,0.0,93,0.00,,,0.00,meteohub,2014-07-28 08:17:00,
2014-07-28 04:21:00,78.3,76.1,30.04,SSW,205,0.0,0.0,93,0.00,,,0.00,meteohub,2014-07-28 08:21:00,
2014-07-28 04:26:00,78.1,75.9,30.04,SSW,205,0.0,0.0,93,0.00,,,0.00,meteohub,2014-07-28 08:26:00,
2014-07-28 04:31:00,78.3,76.1,30.04,SSW,205,0.0,0.0,93,0.00,,,0.00,meteohub,2014-07-28 08:31:00,
2014-07-28 04:36:00,78.3,76.1,30.04,SSW,205,0.0,0.0,93,0.00,,,0.00,meteohub,2014-07-28 08:36:00,
2014-07-28 04:41:00,78.3,76.1,30.04,SSW,205,0.0,0.0,93,0.00,,,0.00,meteohub,2014-07-28 08:41:00,
2014-07-28 04:46:00,78.3,76.1,30.04,SSW,205,0.0,0.0,93,0.00,,,0.00,meteohub,2014-07-28 08:46:00,
2014-07-28 04:51:00,78.3,76.1,30.04,SSW,205,0.0,0.0,93,0.00,,,0.00,meteohub,2014-07-28 08:51:00,
2014-07-28 04:57:00,78.3,76.1,30.04,SSW,205,0.0,0.0,93,0.00,,,0.00,meteohub,2014-07-28 08:57:00,
2014-07-28 05:02:00,78.3,76.1,30.04,SSW,205,0.0,0.0,93,0.00,,,0.00,meteohub,2014-07-28 09:02:00,
2014-07-28 05:07:00,78.3,76.1,30.03,SSW,205,0.0,0.0,93,0.00,,,0.00,meteohub,2014-07-28 09:07:00,
2014-07-28 05:12:00,78.3,76.1,30.04,SSW,205,0.0,0.0,93,0.00,,,0.00,meteohub,2014-07-28 09:12:00,
2014-07-28 05:17:00,78.3,76.1,30.04,SSW,205,0.0,0.0,93,0.00,,,0.00,meteohub,2014-07-28 09:17:00,
2014-07-28 05:22:00,78.4,76.3,30.04,SW,225,0.0,1.0,93,0.00,,,0.00,meteohub,2014-07-28 09:22:00,
2014-07-28 05:27:00,78.4,76.3,30.04,SW,225,0.0,1.0,93,0.00,,,0.00,meteohub,2014-07-28 09:27:00,
2014-07-28 05:32:00,78.4,76.3,30.04,SW,225,0.0,1.0,93,0.00,,,0.00,meteohub,2014-07-28 09:32:00,
2014-07-28 05:37:00,78.4,76.3,30.04,SW,225,0.0,0.0,93,0.00,,,0.00,meteohub,2014-07-28 09:37:00,
2014-07-28 05:42:00,78.3,76.1,30.04,SW,225,0.0,0.0,93,0.00,,,0.00,meteohub,2014-07-28 09:42:00,
2014-07-28 05:47:00,78.3,76.1,30.04,SW,225,0.0,0.0,93,0.00,,,0.00,meteohub,2014-07-28 09:47:00,
2014-07-28 05:52:00,78.3,76.1,30.04,SW,225,0.0,0.0,93,0.00,,,0.00,meteohub,2014-07-28 09:52:00,
2014-07-28 05:57:00,78.3,76.5,30.05,SW,225,0.0,0.0,94,0.00,,,0.00,meteohub,2014-07-28 09:57:00,
2014-07-28 06:02:00,78.3,76.5,30.05,SW,225,0.0,0.0,94,0.00,,,0.00,meteohub,2014-07-28 10:02:00,
2014-07-28 06:07:00,78.3,76.5,30.05,SW,225,0.0,0.0,94,0.00,,,0.00,meteohub,2014-07-28 10:07:00,
2014-07-28 06:12:00,78.3,76.5,30.05,SW,225,0.0,0.0,94,0.00,,,0.00,meteohub,2014-07-28 10:12:00,
2014-07-28 06:17:00,78.1,76.3,30.05,SW,225,0.0,0.0,94,0.00,,,0.00,meteohub,2014-07-28 10:17:00,
2014-07-28 06:22:00,78.1,76.3,30.05,SW,225,0.0,0.0,94,0.00,,,0.00,meteohub,2014-07-28 10:22:00,
2014-07-28 06:27:00,78.1,76.3,30.06,SW,225,0.0,0.0,94,0.00,,,0.00,meteohub,2014-07-28 10:27:00,
2014-07-28 06:31:00,78.1,76.3,30.06,SW,225,0.0,0.0,94,0.00,,,0.00,meteohub,2014-07-28 10:31:00,
2014-07-28 06:36:00,78.1,76.3,30.06,SW,225,0.0,0.0,94,0.00,,,0.00,meteohub,2014-07-28 10:36:00,
2014-07-28 06:41:00,78.1,76.5,30.06,SW,225,0.0,0.0,95,0.00,,,0.00,meteohub,2014-07-28 10:41:00,
2014-07-28 06:46:00,78.1,76.5,30.06,SW,225,0.0,0.0,95,0.00,,,0.00,meteohub,2014-07-28 10:46:00,
2014-07-28 06:51:00,78.3,76.6,30.06,SW,227,0.0,1.0,95,0.00,,,0.00,meteohub,2014-07-28 10:51:00,
2014-07-28 06:56:00,78.4,76.8,30.06,SW,227,0.0,1.0,95,0.00,,,0.00,meteohub,2014-07-28 10:56:00,
2014-07-28 07:01:00,78.4,76.8,30.07,SW,227,0.0,1.0,95,0.00,,,0.00,meteohub,2014-07-28 11:01:00,
2014-07-28 07:06:00,78.6,76.8,30.07,SW,230,0.0,1.0,94,0.00,,,0.00,meteohub,2014-07-28 11:06:00,
2014-07-28 07:11:00,78.8,77.0,30.07,West,267,0.0,2.0,94,0.00,,,0.00,meteohub,2014-07-28 11:11:00,
2014-07-28 07:16:00,79.0,77.2,30.07,West,267,0.0,2.0,94,0.00,,,0.00,meteohub,2014-07-28 11:16:00,
2014-07-28 07:21:00,79.2,77.4,30.07,West,267,0.0,2.0,94,0.00,,,0.00,meteohub,2014-07-28 11:21:00,
2014-07-28 07:26:00,79.2,77.4,30.08,West,267,0.0,2.0,94,0.00,,,0.00,meteohub,2014-07-28 11:26:00,
2014-07-28 07:31:00,79.3,77.5,30.07,West,279,1.0,2.0,94,0.00,,,0.00,meteohub,2014-07-28 11:31:00,
2014-07-28 07:36:00,79.5,77.7,30.07,West,277,0.0,3.0,94,0.00,,,0.00,meteohub,2014-07-28 11:36:00,
2014-07-28 07:41:00,79.7,77.9,30.08,WNW,282,2.0,3.0,94,0.00,,,0.00,meteohub,2014-07-28 11:41:00,
2014-07-28 07:46:00,79.9,78.1,30.08,West,277,0.0,3.0,94,0.00,,,0.00,meteohub,2014-07-28 11:46:00,
2014-07-28 07:51:00,80.1,77.9,30.08,WSW,245,0.0,2.0,93,0.00,,,0.00,meteohub,2014-07-28 11:51:00,
2014-07-28 07:56:00,80.2,78.1,30.08,West,260,1.0,2.0,93,0.00,,,0.00,meteohub,2014-07-28 11:56:00,
2014-07-28 08:01:00,80.6,78.4,30.08,West,270,0.0,3.0,93,0.00,,,0.00,meteohub,2014-07-28 12:01:00,
2014-07-28 08:06:00,81.0,78.4,30.08,West,281,0.0,4.0,92,0.00,,,0.00,meteohub,2014-07-28 12:06:00,
2014-07-28 08:11:00,81.3,78.4,30.08,NW,322,0.0,4.0,91,0.00,,,0.00,meteohub,2014-07-28 12:11:00,
2014-07-28 08:41:00,83.3,77.9,30.08,WSW,256,3.0,5.0,84,0.00,,,0.00,meteohub,2014-07-28 12:41:00,
2014-07-28 08:47:00,83.7,78.3,30.08,WNW,300,4.0,5.0,84,0.00,,,0.00,meteohub,2014-07-28 12:47:00,
2014-07-28 08:52:00,83.8,78.1,30.08,NW,311,1.0,5.0,83,0.00,,,0.00,meteohub,2014-07-28 12:52:00,
2014-07-28 08:57:00,84.0,77.9,30.08,West,268,2.0,6.0,82,0.00,,,0.00,meteohub,2014-07-28 12:57:00,
2014-07-28 09:02:00,84.4,78.3,30.08,West,271,0.0,6.0,82,0.00,,,0.00,meteohub,2014-07-28 13:02:00,
2014-07-28 09:07:00,84.7,78.3,30.08,WNW,286,0.0,6.0,81,0.00,,,0.00,meteohub,2014-07-28 13:07:00,
2014-07-28 09:12:00,84.9,78.1,30.08,NW,313,1.0,7.0,80,0.00,,,0.00,meteohub,2014-07-28 13:12:00,
2014-07-28 09:17:00,85.3,78.4,30.08,West,275,4.0,7.0,80,0.00,,,0.00,meteohub,2014-07-28 13:17:00,
2014-07-28 09:22:00,85.5,78.6,30.08,West,276,2.0,7.0,80,0.00,,,0.00,meteohub,2014-07-28 13:22:00,
2014-07-28 09:27:00,85.8,78.1,30.08,WNW,284,0.0,6.0,78,0.00,,,0.00,meteohub,2014-07-28 13:27:00,
2014-07-28 09:32:00,86.2,78.1,30.08,West,278,2.0,6.0,77,0.00,,,0.00,meteohub,2014-07-28 13:32:00,
2014-07-28 09:37:00,86.4,77.0,30.08,NW,312,0.0,5.0,74,0.00,,,0.00,meteohub,2014-07-28 13:37:00,
2014-07-28 09:42:00,86.9,77.2,30.08,WNW,294,4.0,5.0,73,0.00,,,0.00,meteohub,2014-07-28 13:42:00,
2014-07-28 09:47:00,87.3,77.9,30.08,NNW,344,0.0,5.0,74,0.00,,,0.00,meteohub,2014-07-28 13:47:00,
2014-07-28 09:51:00,87.4,77.4,30.08,NW,306,0.0,5.0,72,0.00,,,0.00,meteohub,2014-07-28 13:51:00,
2014-07-28 09:56:00,87.8,78.1,30.08,West,276,2.0,5.0,73,0.00,,,0.00,meteohub,2014-07-28 13:56:00,
2014-07-28 10:01:00,88.3,77.7,30.08,West,275,3.0,4.0,71,0.00,,,0.00,meteohub,2014-07-28 14:01:00,
2014-07-28 10:06:00,88.7,78.1,30.08,South,179,1.0,4.0,71,0.00,,,0.00,meteohub,2014-07-28 14:06:00,
2014-07-28 10:11:00,88.7,77.2,30.08,WSW,250,1.0,5.0,69,0.00,,,0.00,meteohub,2014-07-28 14:11:00,
2014-07-28 10:16:00,88.5,77.0,30.07,West,280,2.0,5.0,69,0.00,,,0.00,meteohub,2014-07-28 14:16:00,
2014-07-28 10:21:00,88.3,76.5,30.07,NW,304,0.0,6.0,68,0.00,,,0.00,meteohub,2014-07-28 14:21:00,
2014-07-28 10:26:00,88.9,77.0,30.08,West,265,2.0,6.0,68,0.00,,,0.00,meteohub,2014-07-28 14:26:00,
2014-07-28 10:31:00,89.2,78.1,30.08,NW,315,1.0,7.0,70,0.00,,,0.00,meteohub,2014-07-28 14:31:00,
2014-07-28 10:36:00,89.8,76.8,30.08,West,261,0.0,7.0,66,0.00,,,0.00,meteohub,2014-07-28 14:36:00,
2014-07-28 10:41:00,90.1,77.2,30.08,WSW,252,2.0,7.0,66,0.00,,,0.00,meteohub,2014-07-28 14:41:00,
2014-07-28 10:46:00,90.7,77.7,30.08,West,271,1.0,5.0,66,0.00,,,0.00,meteohub,2014-07-28 14:46:00,
2014-07-28 10:51:00,90.3,77.0,30.08,West,266,2.0,5.0,65,0.00,,,0.00,meteohub,2014-07-28 14:51:00,
2014-07-28 10:56:00,90.0,77.0,30.08,NNW,334,4.0,5.0,66,0.00,,,0.00,meteohub,2014-07-28 14:56:00,
2014-07-28 11:01:00,90.0,77.5,30.08,NNW,339,1.0,6.0,67,0.00,,,0.00,meteohub,2014-07-28 15:01:00,
2014-07-28 11:06:00,90.3,77.4,30.08,WNW,294,4.0,6.0,66,0.00,,,0.00,meteohub,2014-07-28 15:06:00,
2014-07-28 11:11:00,89.8,76.8,30.08,WSW,242,0.0,6.0,66,0.00,,,0.00,meteohub,2014-07-28 15:11:00,
2014-07-28 11:16:00,89.6,77.5,30.08,ENE,70,0.0,6.0,68,0.00,,,0.00,meteohub,2014-07-28 15:16:00,
2014-07-28 11:21:00,90.3,77.0,30.08,West,266,5.0,6.0,65,0.00,,,0.00,meteohub,2014-07-28 15:21:00,
2014-07-28 11:26:00,90.9,77.9,30.07,WNW,292,0.0,7.0,66,0.00,,,0.00,meteohub,2014-07-28 15:26:00,
2014-07-28 11:31:00,91.0,78.6,30.07,NNW,331,3.0,7.0,67,0.00,,,0.00,meteohub,2014-07-28 15:31:00,
2014-07-28 11:36:00,91.0,77.5,30.07,West,273,3.0,7.0,65,0.00,,,0.00,meteohub,2014-07-28 15:36:00,
2014-07-28 11:41:00,90.9,77.0,30.07,NNW,328,2.0,5.0,64,0.00,,,0.00,meteohub,2014-07-28 15:41:00,
2014-07-28 11:46:00,90.9,77.5,30.07,WNW,299,0.0,5.0,65,0.00,,,0.00,meteohub,2014-07-28 15:46:00,
2014-07-28 11:51:00,91.0,77.2,30.07,West,263,1.0,5.0,64,0.00,,,0.00,meteohub,2014-07-28 15:51:00,
2014-07-28 11:56:00,90.3,75.9,30.07,WNW,284,4.0,5.0,63,0.00,,,0.00,meteohub,2014-07-28 15:56:00,
2014-07-28 12:01:00,90.5,76.6,30.07,WNW,286,3.0,7.0,64,0.00,,,0.00,meteohub,2014-07-28 16:01:00,
2014-07-28 12:06:00,91.0,76.6,30.07,WNW,283,0.0,7.0,63,0.00,,,0.00,meteohub,2014-07-28 16:06:00,
2014-07-28 12:11:00,91.4,77.0,30.07,NW,321,3.0,7.0,63,0.00,,,0.00,meteohub,2014-07-28 16:11:00,
2014-07-28 12:16:00,91.4,77.0,30.07,NNW,338,0.0,6.0,63,0.00,,,0.00,meteohub,2014-07-28 16:16:00,
2014-07-28 12:21:00,91.9,76.1,30.06,WNW,296,0.0,6.0,60,0.00,,,0.00,meteohub,2014-07-28 16:21:00,
2014-07-28 12:26:00,92.1,75.7,30.07,WNW,284,1.0,6.0,59,0.00,,,0.00,meteohub,2014-07-28 16:26:00,
2014-07-28 12:31:00,92.1,76.3,30.07,NNW,328,0.0,6.0,60,0.00,,,0.00,meteohub,2014-07-28 16:31:00,
2014-07-28 12:36:00,92.8,76.5,30.07,WSW,249,1.0,6.0,59,0.00,,,0.00,meteohub,2014-07-28 16:36:00,
2014-07-28 12:41:00,93.4,75.4,30.06,West,268,0.0,6.0,56,0.00,,,0.00,meteohub,2014-07-28 16:41:00,
2014-07-28 12:46:00,93.6,76.6,30.06,West,276,8.0,10.0,58,0.00,,,0.00,meteohub,2014-07-28 16:46:00,
2014-07-28 12:51:00,93.6,76.6,30.06,North,351,0.0,10.0,58,0.00,,,0.00,meteohub,2014-07-28 16:51:00,
2014-07-28 12:56:00,93.2,75.2,30.06,WNW,296,3.0,10.0,56,0.00,,,0.00,meteohub,2014-07-28 16:56:00,
2014-07-28 13:01:00,93.4,76.5,30.06,NW,323,0.0,8.0,58,0.00,,,0.00,meteohub,2014-07-28 17:01:00,
2014-07-28 13:06:00,93.7,76.3,30.06,NNW,341,1.0,7.0,57,0.00,,,0.00,meteohub,2014-07-28 17:06:00,
2014-07-28 13:11:00,94.5,75.7,30.06,SW,236,0.0,7.0,55,0.00,,,0.00,meteohub,2014-07-28 17:11:00,
2014-07-28 13:16:00,95.0,74.7,30.06,West,265,6.0,6.0,52,0.00,,,0.00,meteohub,2014-07-28 17:16:00,
2014-07-28 13:21:00,95.2,74.8,30.06,South,175,3.0,6.0,52,0.00,,,0.00,meteohub,2014-07-28 17:21:00,
2014-07-28 13:26:00,94.8,75.0,30.06,NW,321,3.0,7.0,53,0.00,,,0.00,meteohub,2014-07-28 17:26:00,
2014-07-28 13:31:00,94.8,75.0,30.05,West,281,3.0,7.0,53,0.00,,,0.00,meteohub,2014-07-28 17:31:00,
2014-07-28 13:36:00,95.2,74.8,30.05,West,275,4.0,7.0,52,0.00,,,0.00,meteohub,2014-07-28 17:36:00,
2014-07-28 13:41:00,95.5,76.3,30.05,West,273,4.0,7.0,54,0.00,,,0.00,meteohub,2014-07-28 17:41:00,
2014-07-28 13:46:00,95.7,75.2,30.05,South,190,2.0,7.0,52,0.00,,,0.00,meteohub,2014-07-28 17:46:00,
2014-07-28 13:51:00,95.4,74.3,30.04,WSW,242,1.0,9.0,51,0.00,,,0.00,meteohub,2014-07-28 17:51:00,
2014-07-28 13:56:00,94.8,74.5,30.04,SW,215,1.0,9.0,52,0.00,,,0.00,meteohub,2014-07-28 17:56:00,
2014-07-28 14:01:00,94.8,73.9,30.04,West,259,0.0,11.0,51,0.00,,,0.00,meteohub,2014-07-28 18:01:00,
2014-07-28 14:06:00,95.4,74.3,30.04,SW,219,4.0,11.0,51,0.00,,,0.00,meteohub,2014-07-28 18:06:00,
2014-07-28 14:11:00,95.5,73.4,30.04,SW,218,1.0,11.0,49,0.00,,,0.00,meteohub,2014-07-28 18:11:00,
2014-07-28 14:16:00,96.1,72.5,30.04,WSW,254,3.0,8.0,47,0.00,,,0.00,meteohub,2014-07-28 18:16:00,
2014-07-28 14:21:00,96.3,73.4,30.04,WNW,286,3.0,8.0,48,0.00,,,0.00,meteohub,2014-07-28 18:21:00,
2014-07-28 14:26:00,95.7,71.6,30.04,South,181,2.0,8.0,46,0.00,,,0.00,meteohub,2014-07-28 18:26:00,
2014-07-28 14:31:00,95.5,72.1,30.04,SSW,207,2.0,9.0,47,0.00,,,0.00,meteohub,2014-07-28 18:31:00,
2014-07-28 14:36:00,95.5,71.4,30.03,WSW,254,4.0,9.0,46,0.00,,,0.00,meteohub,2014-07-28 18:36:00,
2014-07-28 14:41:00,95.5,72.7,30.03,South,177,0.0,9.0,48,0.00,,,0.00,meteohub,2014-07-28 18:41:00,
2014-07-28 14:46:00,96.3,71.4,30.03,WNW,298,4.0,9.0,45,0.00,,,0.00,meteohub,2014-07-28 18:46:00,
2014-07-28 14:51:00,96.4,70.3,30.03,WNW,285,4.0,9.0,43,0.00,,,0.00,meteohub,2014-07-28 18:51:00,
2014-07-28 14:56:00,96.8,73.2,30.03,WNW,294,3.0,9.0,47,0.00,,,0.00,meteohub,2014-07-28 18:56:00,
2014-07-28 15:01:00,97.2,72.3,30.03,WNW,298,1.0,9.0,45,0.00,,,0.00,meteohub,2014-07-28 19:01:00,
2014-07-28 15:06:00,96.1,77.9,30.03,ESE,121,3.0,9.0,56,0.00,,,0.00,meteohub,2014-07-28 19:06:00,
2014-07-28 15:11:00,94.5,77.9,30.03,ENE,67,0.0,8.0,59,0.00,,,0.00,meteohub,2014-07-28 19:11:00,
2014-07-28 15:16:00,93.6,79.0,30.02,SE,136,1.0,8.0,63,0.00,,,0.00,meteohub,2014-07-28 19:16:00,
2014-07-28 15:21:00,92.5,77.5,30.02,ESE,119,7.0,10.0,62,0.00,,,0.00,meteohub,2014-07-28 19:21:00,
2014-07-28 15:26:00,92.5,78.4,30.01,South,180,0.0,10.0,64,0.00,,,0.00,meteohub,2014-07-28 19:26:00,
2014-07-28 15:31:00,92.7,78.3,30.01,South,175,5.0,10.0,63,0.00,,,0.00,meteohub,2014-07-28 19:31:00,
2014-07-28 15:36:00,91.9,78.1,30.01,SW,227,1.0,9.0,64,0.00,,,0.00,meteohub,2014-07-28 19:36:00,
2014-07-28 15:41:00,91.8,78.3,30.01,SE,126,0.0,10.0,65,0.00,,,0.00,meteohub,2014-07-28 19:41:00,
2014-07-28 15:46:00,91.6,78.6,30.01,South,191,2.0,10.0,66,0.00,,,0.00,meteohub,2014-07-28 19:46:00,